www.pogodaiklimat.ru

ПОГОДА на Острове Сан-Клементе, CA

  • Прогноз погоды на Острове Сан-Клементе
  • Монитор погоды на Острове Сан-Клементе
  • Климат на Острове Сан-Клементе

АРХИВ ПОГОДЫ на Острове Сан-Клементе

Время (UTC), дата Ветер
(напр.,м/с)
 
Видим.   Явления Облачность Т
(С)
Тd
(С)
f
(%)
Тe
(С)
Тes
(С)
Комфортность

P
(гПа)

Po
(гПа)
Тmin
(С)
Tmax
(С)
R
(мм)
SD
(см)
18:56 22.05 З  16 км    5/5 600 м  +17.8  +11.7  67  +17  +19    1008.6  1002.1         
19:56 22.05 З  16 км    5/5 510 м  +17.2  +11.7  70  +16  +18    1008.6  1002.1         
20:32 22.05 З  6
{9} 
16 км    8/8 510 м  +16.7  +11.1  70  +15  +16      1002.1         
20:56 22.05 З  16 км    8/8 510 м
[верхняя] 
+17.8  +12.2  70  +17  +18    1008.5  1002.1         
21:43 22.05 З  16 км    8/5 510 м
[верхняя] 
+17.2  +12.2  72  +16  +17      1001.8         
21:56 22.05 З  8
{10} 
16 км    8/5 510 м
[верхняя] 
+16.7  +11.7  72  +15  +16    1008.4  1002.1         
22:56 22.05 З  16 км    8/2 510 м
[верхняя] 
+16.7  +11.7  72  +15  +16    1008.6  1002.1  +16.1  +18.3     
23:56 22.05 З  16 км    8/2 510 м
[средняя верхняя] 
+16.1  +11.1  72  +14  +15    1008.5  1002.1         
00:56 23.05     н/о    ясно  +15.0            1008.6  1002.1         
01:56 23.05     н/о    ясно  +14.0            1009.1  1002.8         
02:56 23.05     н/о    2/2 360 м  +13.0            1009.9  1003.5         
03:56 23.05     н/о    ясно  +13.0            1010.4  1004.1         
04:56 23.05     н/о    ясно  +13.0            1010.9  1004.5  +13.3  +16.7     
05:47 23.05     н/о    8/8 420 м  +13.0              1004.5         
05:56 23.05     н/о    8/8 420 м  +13.0            1011.0  1004.5         
06:30 23.05     н/о    5/5 420 м  +13.0              1004.5         
06:37 23.05     н/о    8/8 390 м  +13.0              1004.5         
06:56 23.05     н/о    10/10 390 м  +13.0            1010.9  1004.5         
07:56 23.05     н/о    10/10 360 м  +13.0            1010.9  1004.5         
08:56 23.05     н/о    10/10 420 м  +13.0            1011.1  1004.8         
09:34 23.05     н/о    10/10 450 м  +13.0              1005.2         
09:56 23.05     н/о    10/10 450 м  +13.0            1011.4  1005.2         
10:07 23.05     н/о    10/10 390 м  +13.0              1005.2         
10:31 23.05     н/о    10/10 450 м  +13.0              1005.2         
10:56 23.05     н/о    10/10 480 м  +13.0            1011.5  1005.2  +12.8  +13.3     
11:56 23.05     н/о    10/10 450 м  +13.0            1012.0  1005.5         
12:56 23.05     н/о    10/10 510 м  +13.0            1012.8  1006.5         
13:02 23.05 З  16 км    10/10 510 м  +13.9  +10.0  77  +12  +12      1006.5         
13:56 23.05 З  16 км  слабый дождь  10/10 570 м  +13.9  +10.0  77  +12  +12    1013.7  1007.2         
14:56 23.05 З  16 км    10/10 450 м  +13.9  +10.0  77  +12  +12    1014.2  1007.8         
15:56 23.05 З  16 км    10/10 450 м  +14.4  +10.0  75  +13  +13    1015.0  1008.5         
16:56 23.05 З  16 км    10/10 540 м  +15.0  +10.0  72  +14  +14    1015.6  1009.2  +13.3  +15.0     
17:56 23.05 ЮЗ  16 км    10/10 660 м  +15.6  +10.6  72  +15  +15    1016.1  1009.5         
18:56 23.05 З  16 км    10/10 660 м  +16.1  +10.6  70  +16  +16    1016.5  1009.9         
19:56 23.05 ЮЗ  16 км    8/8 750 м  +17.2  +11.7  70  +17  +21    1016.6  1010.2         
20:56 23.05 ЮЗ  16 км    8/2 1200 м
[средняя верхняя] 
+17.2  +11.7  70  +17  +25    1016.4  1009.9         
21:56 23.05 ЮЗ  16 км    8/2 1200 м
[средняя верхняя] 
+17.2  +11.7  70  +17  +24    1016.1  1009.5         
22:56 23.05 ЮЗ  16 км    8/2 1200 м
[средняя верхняя] 
+17.2  +11.7  70  +17  +21    1016.0  1009.5  +15.0  +17.8     
23:56 23.05 ЮЗ  16 км    5/2 1200 м
[средняя верхняя] 
+16.7  +11.1  70  +17  +21    1016.0  1009.5         
00:56 24.05     н/о    ясно  +16.0            1015.8  1009.2         
01:56 24.05     н/о    ясно  +14.0            1016.0  1009.5         
02:56 24.05     н/о    ясно  +13.0            1016.4  1009.9         
03:56 24.05     н/о    10/10 1380 м  +14.0            1017.1  1010.5         
04:56 24.05     н/о    10/10 1290 м  +14.0            1017.0  1010.5  +12.2  +17.2     
05:56 24.05     н/о    10/10 1320 м  +14.0            1016.8  1010.2         
06:56 24.05     н/о    2/2 1350 м  +12.0            1016.4  1009.9         
07:56 24.05     н/о    5/5 1320 м  +11.0            1016.0  1009.5         
08:56 24.05     н/о    ясно  +11.0            1015.7  1009.2         

 

Местоположение метеостанции San Clemente Island NALF: широта 33.0200 долгота -118.5900 высота над уровнем моря 55 м.

В архиве по умолчанию представлена погода на Острове Сан-Клементе за последние 1-2 суток. Обновление информации о фактической погоде в базе происходит ежечасно! Архивные данные за месяц целиком и за предыдущие месяцы Вы можете получить, выбрав интересующий диапазон дат из раскрывающегося списка и нажав кнопку "Ввод!".

Внимание! Архив погоды МЕТАР в базе сайта хранится не более 60 дней. Нет смысла пытаться выбрать более раннюю дату.

Внимание! Время в таблицах - всемирное. Для получения местного времени необходимо прибавить поправку, которая на Острове Сан-Клементе равна -8 ч.

Ветер - указаны скорость ветра в м/с и направление, откуда дует ветер: С - северный, СВ - северо-восточный, В - восточный, ЮВ - юго-восточный, Ю - южный, ЮЗ - юго-западный, З - западный, СЗ - северо-западный.
Видимость - горизонтальная дальность видимости в метрах или километрах. При видимости от 1 до 10 км при отсутствии осадков обычно наблюдается дымка, при ухудшении видимости до 1 км и менее - туман. В сухую погоду видимость может ухудшаться дымом, пылью или мглою.
Атмосферные явления - указаны явления, наблюдавшиеся в указанный момент времени.
Облачность - указаны через наклонную черту верхняя и нижняя облачность в баллах и высота нижней границы облаков в метрах. Внимание: облачность, как и прочие метеорологические величины в США измеряются автоматическими метеостанциями. Указанные значения в баллах носят условный характер и показывают процент времени, в течение которого, в среднем, лазерный луч высотомера отражался от облаков обратно.
T - Температура воздуха - температура, измеренная на высоте 2 м над землей.
Td - Температура точки росы - температура, при понижении до которой содержащийся в воздухе водяной пар достигнет насыщения.
f - Относительная влажность воздуха - влажноcть воздуха, измеренная на высоте 2 м над землей.
Te - Эффективная температура - температура, которую ощущает одетый по сезону человек в тени. Характеристика душности погоды. При расчете учитывается влияние влажности воздуха и скорости ветра на теплоощущения человека.
Tes - Эффективная температура на солнце - температура, которую ощущает человек, с поправкой на солнечный нагрев. Характеристика знойности погоды. Зависит от высоты солнца над горизонтом, облачности и скорости ветра. Ночью, в пасмурную погоду, а также при ветре 12 м/с и более поправка равна нулю.
P - Атмосферное давление - приведенное к уровню моря атмосферное давление.
Po - Атмосферное давление - измеренное на уровне метеостанции атмосферное давление.
Tmin - Минимальная температура - минимум температуры воздуха на высоте 2 м над землей.
Tmax - Максимальная температура - максимум температуры воздуха на высоте 2 м над землей.
R - Количество осадков - Количество выпавших осадков за 3 или 6 часов, мм.
SD - Снежный покров - Высота снежного покрова, см.